Location: Cardiff
(53.7833°N, 113.6000°W)
Time: 07:45:59
(UTC+00:00)

AO-85 - Visible Passes

Search period start: 03 December 2023 00:00
Search period end: 13 December 2023 00:00
Orbit: 516 x 753 km, 64.8° (Epoch: 04 January)

Date Brightness Start Highest point End Pass type
(mag) Time Alt. Az. Time Alt. Az. Time Alt. Az.
03 Dec ? 00:02:03 10° WNW 00:05:17 22° NNW 00:08:40 10° NE visible
03 Dec ? 01:43:25 10° NW 01:46:33 21° N 01:46:33 21° N visible
03 Dec ? 03:23:32 10° NW 03:23:51 12° NW 03:23:51 12° NW visible
04 Dec ? 00:22:30 10° NW 00:25:34 19° N 00:28:35 11° NE visible
04 Dec ? 02:03:21 10° NW 02:05:53 22° N 02:05:53 22° N visible
05 Dec ? 00:42:46 10° NW 00:45:53 19° N 00:47:55 15° NE visible
05 Dec ? 02:23:09 10° NW 02:25:13 23° NNW 02:25:13 23° NNW visible
06 Dec ? 01:02:50 10° NW 01:06:10 21° NNE 01:07:17 19° NE visible
06 Dec ? 02:42:53 10° NW 02:44:35 22° NNW 02:44:35 22° NNW visible
07 Dec ? 01:22:42 10° NW 01:26:23 26° NNE 01:26:41 26° NNE visible
07 Dec ? 03:02:37 10° NW 03:03:59 20° NW 03:03:59 20° NW visible
08 Dec ? 00:02:10 10° NW 00:05:20 20° N 00:08:38 10° NE visible
08 Dec ? 01:42:28 10° NW 01:46:07 34° NNE 01:46:07 34° NNE visible
08 Dec ? 03:22:24 10° NW 03:23:25 17° NW 03:23:25 17° NW visible
09 Dec ? 00:22:10 10° NW 00:25:35 22° NNE 00:28:19 14° ENE visible
09 Dec ? 02:02:10 10° NW 02:05:37 44° N 02:05:37 44° N visible
09 Dec ? 03:42:20 10° WNW 03:42:55 13° WNW 03:42:55 13° WNW visible
10 Dec ? 00:42:00 10° NW 00:45:46 27° NNE 00:47:54 19° ENE visible
10 Dec ? 02:21:55 10° NW 02:25:13 50° NW 02:25:13 50° NW visible
11 Dec ? 01:01:44 10° NW 01:05:51 37° NNE 01:07:36 27° ENE visible
11 Dec ? 02:41:42 10° NW 02:44:55 43° WNW 02:44:55 43° WNW visible
12 Dec ? 01:21:25 10° NW 01:25:48 56° NE 01:27:27 36° E visible
12 Dec ? 03:01:39 10° WNW 03:04:47 31° W 03:04:47 31° W visible
